FW5837 Weather Reports


Display with metric or nautical units.
time (UTC)temp
F
wind
direction
speed
MPH
gust
MPH
rain 1hr
in
rain 24hr
in
rain mn
in
humidity
%
barometer
mb
20260505204544 71 190 13.0 33.0 0.00 0.00 0.00 42 1005.7
20260505204033 71 239 14.0 34.0 0.00 0.00 0.00 42 1005.6
20260505203532 72 304 12.0 34.0 0.00 0.00 0.00 41 1005.7
20260505203042 72 178 12.0 27.0 0.00 0.00 0.00 41 1005.7
20260505202532 72 230 6.0 31.0 0.00 0.00 0.00 41 1005.7
20260505202032 72 231 11.0 31.0 0.00 0.00 0.00 40 1005.5
20260505201541 72 202 12.0 37.0 0.00 0.00 0.00 41 1005.7
20260505201033 72 160 13.0 37.0 0.00 0.00 0.00 41 1005.9
20260505200533 72 238 12.0 35.0 0.00 0.00 0.00 41 1005.7
20260505200046 72 205 12.0 34.0 0.00 0.00 0.00 41 1005.8
20260505195535 72 130 7.0 34.0 0.00 0.00 0.00 42 1006.1
20260505195032 72 204 13.0 34.0 0.00 0.00 0.00 41 1006.0
20260505194547 73 113 11.0 27.0 0.00 0.00 0.00 41 1005.7
20260505194033 72 250 10.0 27.0 0.00 0.00 0.00 42 1005.9
20260505193531 71 207 10.0 27.0 0.00 0.00 0.00 43 1006.0
20260505193042 71 131 13.0 28.0 0.00 0.00 0.00 43 1005.9
20260505192533 71 248 12.0 28.0 0.00 0.00 0.00 43 1006.0
20260505192030 71 182 11.0 26.0 0.00 0.00 0.00 43 1006.0
20260505191603 71 179 11.0 29.0 0.00 0.00 0.00 44 1006.2
20260505191032 71 181 13.0 29.0 0.00 0.00 0.00 43 1006.1
20260505190530 71 149 11.0 28.0 0.00 0.00 0.00 43 1006.0
20260505190043 71 225 13.0 27.0 0.00 0.00 0.00 43 1006.2
20260505185530 71 196 12.0 27.0 0.00 0.00 0.00 43 1006.0
20260505185030 71 232 10.0 27.0 0.00 0.00 0.00 43 1006.2
20260505184539 71 190 12.0 34.0 0.00 0.00 0.00 42 1006.2
20260505184032 71 175 11.0 34.0 0.00 0.00 0.00 42 1006.2
20260505183530 72 217 11.0 28.0 0.00 0.00 0.00 42 1006.5
20260505183045 72 144 10.0 26.0 0.00 0.00 0.00 42 1006.1
20260505182530 72 190 10.0 31.0 0.00 0.00 0.00 41 1006.3
20260505182030 73 221 7.0 33.0 0.00 0.00 0.00 40 1006.2
20260505181544 73 211 9.0 35.0 0.00 0.00 0.00 39 1006.4
20260505181031 73 193 16.0 35.0 0.00 0.00 0.00 39 1006.6
20260505180531 73 159 13.0 37.0 0.00 0.00 0.00 37 1006.8
20260505180058 74 243 13.0 37.0 0.00 0.00 0.00 36 1006.9
20260505175530 74 281 11.0 36.0 0.00 0.00 0.00 36 1006.8
20260505175030 75 174 12.0 36.0 0.00 0.00 0.00 36 1007.1
20260505174551 74 180 6.0 27.0 0.00 0.00 0.00 40 1007.0
20260505174030 74 59 11.0 27.0 0.00 0.00 0.00 39 1007.1
20260505173532 74 246 7.0 33.0 0.00 0.00 0.00 39 1007.1
20260505173047 74 170 10.0 33.0 0.00 0.00 0.00 40 1007.2
20260505172530 73 262 13.0 26.0 0.00 0.00 0.00 40 1007.2
20260505172029 73 167 8.0 24.0 0.00 0.00 0.00 40 1007.2
20260505171548 73 229 9.0 32.0 0.00 0.00 0.00 40 1007.2
20260505171030 73 165 15.0 32.0 0.00 0.00 0.00 39 1007.4
20260505170530 73 162 8.0 23.0 0.00 0.00 0.00 40 1007.2
20260505170047 73 219 10.0 28.0 0.00 0.00 0.00 39 1007.3
20260505165529 73 205 9.0 28.0 0.00 0.00 0.00 40 1007.3
20260505165031 73 174 14.0 26.0 0.00 0.00 0.00 39 1007.6
20260505164546 74 226 7.0 21.0 0.00 0.00 0.00 42 1007.3
20260505164031 73 167 6.0 24.0 0.00 0.00 0.00 41 1007.5
20260505163532 73 211 6.0 26.0 0.00 0.00 0.00 41 1007.6
20260505163042 73 260 11.0 26.0 0.00 0.00 0.00 41 1007.4
20260505162530 73 214 9.0 26.0 0.00 0.00 0.00 42 1007.8
20260505162032 72 202 7.0 17.0 0.00 0.00 0.00 43 1008.0
20260505161551 73 209 6.0 14.0 0.00 0.00 0.00 43 1007.9
20260505161032 72 220 6.0 17.0 0.00 0.00 0.00 44 1008.0
20260505160533 71 250 8.0 19.0 0.00 0.00 0.00 45 1008.0
20260505153045 69 352 10.0 25.0 0.00 0.00 0.00 47 1008.6
20260505152534 70 268 9.0 20.0 0.00 0.00 0.00 47 1008.6
20260505152032 70 188 6.0 17.0 0.00 0.00 0.00 48 1008.6
20260505151543 69 222 6.0 16.0 0.00 0.00 0.00 49 1008.6
20260505151034 69 247 6.0 20.0 0.00 0.00 0.00 49 1008.6
20260505150532 68 262 8.0 31.0 0.00 0.00 0.00 50 1008.6
20260505140532 65 147 6.0 18.0 0.00 0.00 0.00 54 1008.8
20260505125030 59 188 6.0 15.0 0.00 0.00 0.00 65 1008.9
20260505124542 59 211 6.0 15.0 0.00 0.00 0.00 67 1008.9
20260505124032 59 252 5.0 18.0 0.00 0.00 0.00 68 1008.8
20260505123529 59 205 8.0 18.0 0.00 0.00 0.00 68 1008.8
20260505123045 59 213 8.0 16.0 0.00 0.00 0.00 68 1008.8
20260505122530 59 238 7.0 16.0 0.00 0.00 0.00 68 1008.6
20260505122032 59 198 6.0 15.0 0.00 0.00 0.00 68 1008.6
20260505121543 58 168 4.0 12.0 0.00 0.00 0.00 68 1008.5
20260505121031 58 207 4.0 13.0 0.00 0.00 0.00 69 1008.6
20260505120531 57 206 5.0 14.0 0.00 0.00 0.00 70 1008.5
20260505120045 56 181 5.0 14.0 0.00 0.00 0.00 72 1008.6
20260505115530 54 181 3.0 11.0 0.00 0.00 0.00 76 1008.5
20260505115030 54 235 4.0 11.0 0.00 0.00 0.00 77 1008.4
20260505114544 53 227 3.0 7.0 0.00 0.00 0.00 78 1008.3
20260505114032 53 261 2.0 12.0 0.00 0.00 0.00 77 1008.4
20260505113529 54 246 4.0 12.0 0.00 0.00 0.00 76 1008.4
20260505113049 54 212 5.0 16.0 0.00 0.00 0.00 76 1008.5
20260505112529 54 236 6.0 16.0 0.00 0.00 0.00 75 1008.7
20260505112029 54 259 6.0 23.0 0.00 0.00 0.00 75 1008.7
20260505111543 55 186 8.0 23.0 0.00 0.00 0.00 72 1008.6
20260505111029 57 294 12.0 34.0 0.00 0.00 0.00 65 1008.6
20260505110535 58 178 12.0 34.0 0.00 0.00 0.00 63 1008.3
20260505102031 57 208 8.0 15.0 0.00 0.00 0.00 62 1007.9
20260505101600 57 252 6.0 20.0 0.00 0.00 0.00 62 1007.7
20260505101034 57 229 7.0 20.0 0.00 0.00 0.00 62 1007.8
20260505100529 57 185 7.0 15.0 0.00 0.00 0.00 62 1007.7
20260505100100 56 243 5.0 18.0 0.00 0.00 0.00 62 1007.6
20260505095536 56 200 6.0 18.0 0.00 0.00 0.00 62 1007.6
20260505095032 56 274 7.0 24.0 0.00 0.00 0.00 62 1007.6
20260505094547 56 189 7.0 24.0 0.00 0.00 0.00 62 1007.8
20260505094029 56 277 5.0 15.0 0.00 0.00 0.00 63 1007.7
20260505093532 55 209 7.0 17.0 0.00 0.00 0.00 63 1007.9
20260505093051 55 196 5.0 17.0 0.00 0.00 0.00 63 1007.7
20260505092532 55 224 6.0 17.0 0.00 0.00 0.00 63 1007.7
20260505092032 54 232 5.0 14.0 0.00 0.00 0.00 63 1007.8
20260505091542 54 232 5.0 14.0 0.00 0.00 0.00 63 1007.9
20260505091031 54 190 5.0 13.0 0.00 0.00 0.00 63 1007.7
20260505090531 54 245 4.0 12.0 0.00 0.00 0.00 63 1007.8
20260505090037 54 211 6.0 16.0 0.00 0.00 0.00 62 1007.9
20260505085529 54 261 6.0 18.0 0.00 0.00 0.00 62 1007.9
20260505085032 54 205 6.0 25.0 0.00 0.00 0.00 62 1008.1
20260505084546 54 209 9.0 25.0 0.00 0.00 0.00 62 1008.1
20260505084029 54 208 6.0 17.0 0.00 0.00 0.00 62 1008.1
20260505083529 54 195 7.0 17.0 0.00 0.00 0.00 61 1008.2
20260505083044 54 270 7.0 15.0 0.00 0.00 0.00 61 1008.2
20260505082528 54 329 6.0 17.0 0.00 0.00 0.00 61 1008.2
20260505082028 55 194 7.0 20.0 0.00 0.00 0.00 61 1008.2
20260505081556 55 221 8.0 20.0 0.00 0.00 0.00 61 1008.2
20260505081033 55 215 8.0 20.0 0.00 0.00 0.00 60 1008.2
20260505080535 55 204 8.0 20.0 0.00 0.00 0.00 60 1008.1
20260505080055 55 211 8.0 20.0 0.00 0.00 0.00 60 1008.1
20260505075533 55 234 8.0 18.0 0.00 0.00 0.00 60 1008.0
20260505075033 55 187 7.0 17.0 0.00 0.00 0.00 60 1008.1
20260505074542 55 201 7.0 17.0 0.00 0.00 0.00 60 1008.0
20260505074032 55 207 7.0 20.0 0.00 0.00 0.00 60 1008.0
20260505073532 55 213 6.0 20.0 0.00 0.00 0.00 60 1008.0
20260505073045 55 257 5.0 19.0 0.00 0.00 0.00 60 1008.0
20260505072532 55 219 8.0 20.0 0.00 0.00 0.00 60 1007.9
20260505072028 55 212 8.0 20.0 0.00 0.00 0.00 59 1008.0
20260505071551 55 156 8.0 17.0 0.00 0.00 0.00 59 1008.1
20260505071032 55 236 8.0 17.0 0.00 0.00 0.00 59 1007.9
20260505070529 55 206 9.0 16.0 0.00 0.00 0.00 58 1008.1
20260505070045 55 231 9.0 20.0 0.00 0.00 0.00 58 1008.0
20260505065532 55 178 9.0 20.0 0.00 0.00 0.00 59 1008.0
20260505065029 55 283 7.0 17.0 0.00 0.00 0.00 58 1008.1
20260505064543 55 221 8.0 24.0 0.00 0.00 0.00 58 1008.1
20260505064029 55 180 9.0 27.0 0.00 0.00 0.00 57 1008.0
20260505063530 55 250 10.0 27.0 0.00 0.00 0.00 57 1008.1
20260505063049 55 262 11.0 24.0 0.00 0.00 0.00 57 1008.0
20260505062529 55 276 9.0 25.0 0.00 0.00 0.00 58 1008.0
20260505062031 55 239 9.0 25.0 0.00 0.00 0.00 58 1007.9
20260505061547 55 245 11.0 26.0 0.00 0.00 0.00 58 1007.9
20260505061029 55 221 8.0 30.0 0.00 0.00 0.00 58 1008.1
20260505060532 55 227 9.0 30.0 0.00 0.00 0.00 58 1008.2
20260505060042 55 209 9.0 23.0 0.00 0.00 0.00 58 1008.2
20260505055532 55 245 10.0 26.0 0.00 0.00 0.00 58 1008.2
20260505055032 55 242 8.0 26.0 0.00 0.00 0.00 58 1008.3
20260505054552 55 171 9.0 25.0 0.00 0.00 0.00 58 1008.3
20260505054032 55 196 9.0 24.0 0.00 0.00 0.00 58 1008.2
20260505053529 55 254 11.0 24.0 0.00 0.00 0.00 58 1008.3
20260505053047 55 182 7.0 19.0 0.00 0.00 0.00 59 1008.4
20260505052535 55 318 9.0 19.0 0.00 0.00 0.00 59 1008.3
20260505052033 55 227 6.0 19.0 0.00 0.00 0.00 58 1008.3
20260505051545 54 179 8.0 17.0 0.00 0.00 0.00 59 1008.2
20260505051029 54 240 7.0 17.0 0.00 0.00 0.00 59 1008.4
20260505050531 54 227 8.0 25.0 0.00 0.00 0.00 59 1008.6
20260505041544 53 215 5.0 19.0 0.00 0.00 0.00 59 1008.8
20260505041033 53 211 6.0 18.0 0.00 0.00 0.00 59 1008.7
20260505040529 53 186 4.0 14.0 0.00 0.00 0.00 59 1008.9
20260505040046 53 251 6.0 14.0 0.00 0.00 0.00 58 1008.8
20260505035531 53 195 4.0 13.0 0.00 0.00 0.00 58 1008.8
20260505035031 53 211 5.0 13.0 0.00 0.00 0.00 58 1008.7
20260505034546 53 184 3.0 13.0 0.00 0.00 0.00 58 1008.7
20260505034031 53 219 5.0 16.0 0.00 0.00 0.00 57 1008.7
20260505033532 53 195 4.0 16.0 0.00 0.00 0.00 57 1008.7
20260505033041 53 221 4.0 12.0 0.00 0.00 0.00 57 1008.7
20260505032532 53 188 5.0 12.0 0.00 0.00 0.00 56 1008.6
20260505032030 54 190 4.0 12.0 0.00 0.00 0.00 56 1008.6
20260505031543 54 152 5.0 12.0 0.00 0.00 0.00 56 1008.7
20260505031034 54 148 4.0 11.0 0.00 0.00 0.00 55 1008.7
20260505030529 54 165 3.0 11.0 0.00 0.00 0.00 55 1008.7
20260505030044 54 175 4.0 10.0 0.00 0.00 0.00 54 1008.6
20260505025531 54 169 4.0 12.0 0.00 0.00 0.00 54 1008.8
20260505025028 54 190 4.0 15.0 0.00 0.00 0.00 54 1008.8
20260505024544 54 180 6.0 15.0 0.00 0.00 0.00 54 1008.7
20260505024031 54 180 5.0 12.0 0.00 0.00 0.00 54 1008.8
20260505023528 54 200 4.0 12.0 0.00 0.00 0.00 54 1008.9
20260505023050 54 205 3.0 12.0 0.00 0.00 0.00 54 1008.7
20260505022528 54 190 3.0 12.0 0.00 0.00 0.00 54 1008.8
20260505022029 54 190 4.0 12.0 0.00 0.00 0.00 54 1008.8
20260505021545 54 136 3.0 7.0 0.00 0.00 0.00 53 1008.7
20260505021031 54 205 3.0 8.0 0.00 0.00 0.00 53 1008.8
20260505020532 55 202 2.0 9.0 0.00 0.00 0.00 52 1008.7
20260505020041 55 146 4.0 9.0 0.00 0.00 0.00 52 1008.7
20260505015532 55 165 4.0 8.0 0.00 0.00 0.00 52 1008.7
20260505015032 55 154 3.0 10.0 0.00 0.00 0.00 52 1008.7
20260505014551 55 175 3.0 10.0 0.00 0.00 0.00 52 1008.7
20260505014030 55 184 4.0 10.0 0.00 0.00 0.00 51 1008.6
20260505013527 55 175 3.0 9.0 0.00 0.00 0.00 51 1008.6
20260505013043 55 201 5.0 8.0 0.00 0.00 0.00 51 1008.5
20260505012528 55 190 4.0 11.0 0.00 0.00 0.00 51 1008.5
20260505012029 55 250 3.0 13.0 0.00 0.00 0.00 51 1008.5
20260505011544 55 205 5.0 13.0 0.00 0.00 0.00 51 1008.5
20260505011049 56 213 4.0 10.0 0.00 0.00 0.00 51 1008.5
20260505010531 56 148 4.0 11.0 0.00 0.00 0.00 50 1008.6
20260505010104 56 234 3.0 11.0 0.00 0.00 0.00 50 1008.5
20260505005532 56 180 4.0 9.0 0.00 0.00 0.00 50 1008.6
20260505005028 56 207 5.0 10.0 0.00 0.00 0.00 50 1008.4
20260505004540 56 207 3.0 10.0 0.00 0.00 0.00 49 1008.3
20260505004028 57 184 3.0 10.0 0.00 0.00 0.00 49 1008.4
20260505003528 57 201 4.0 11.0 0.00 0.00 0.00 48 1008.2
20260505003046 57 182 4.0 11.0 0.00 0.00 0.00 48 1008.2
20260505002528 57 184 2.0 12.0 0.00 0.00 0.00 48 1008.1
20260505002032 57 202 4.0 12.0 0.00 0.00 0.00 47 1008.0
20260505001544 58 200 4.0 10.0 0.00 0.00 0.00 47 1008.0
20260505001031 58 246 3.0 10.0 0.00 0.00 0.00 47 1007.9
20260505000528 58 192 5.0 9.0 0.00 0.00 0.00 47 1007.9
20260505000048 58 246 4.0 9.0 0.00 0.00 0.00 47 1007.8
20260504235533 58 220 4.0 11.0 0.00 0.00 0.00 46 1007.8
20260504235029 59 163 5.0 13.0 0.00 0.00 0.00 46 1007.7
20260504234550 59 202 4.0 14.0 0.00 0.00 0.00 46 1007.5
20260504234029 59 248 4.0 14.0 0.00 0.00 0.00 46 1007.5
20260504233529 59 211 4.0 9.0 0.00 0.00 0.00 46 1007.5
20260504233045 59 217 3.0 10.0 0.00 0.00 0.00 45 1007.4
20260504232529 60 200 4.0 11.0 0.00 0.00 0.00 45 1007.2
20260504232030 60 207 5.0 13.0 0.00 0.00 0.00 44 1007.2
20260504231544 60 188 6.0 13.0 0.00 0.00 0.00 45 1007.1
20260504231031 60 229 3.0 12.0 0.00 0.00 0.00 45 1007.0
20260504230530 60 199 6.0 13.0 0.00 0.00 0.00 45 1007.0
20260504230047 60 209 6.0 13.0 0.00 0.00 0.00 45 1006.9
20260504225535 60 151 4.0 10.0 0.00 0.00 0.00 45 1007.0
20260504225031 60 142 4.0 10.0 0.00 0.00 0.00 45 1007.1
20260504224545 60 182 2.0 11.0 0.00 0.00 0.00 45 1007.0
20260504224031 60 186 2.0 13.0 0.00 0.00 0.00 44 1007.0
20260504223531 60 217 5.0 13.0 0.00 0.00 0.00 43 1006.8
20260504223059 61 234 5.0 12.0 0.00 0.00 0.00 44 1006.9
20260504222532 61 254 4.0 13.0 0.00 0.00 0.00 43 1006.8
20260504222032 61 142 5.0 21.0 0.00 0.00 0.00 43 1006.9
20260504221553 61 215 5.0 21.0 0.00 0.00 0.00 43 1006.7
20260504221031 62 162 7.0 21.0 0.00 0.00 0.00 41 1006.7
20260504220531 62 184 6.0 15.0 0.00 0.00 0.00 42 1006.7
20260504220047 62 183 3.0 16.0 0.00 0.00 0.00 43 1006.8
20260504215531 62 215 6.0 16.0 0.00 0.00 0.00 43 1006.7
20260504215030 62 258 5.0 16.0 0.00 0.00 0.00 42 1006.7
20260504214547 61 189 6.0 14.0 0.00 0.00 0.00 43 1006.7
20260504214029 61 248 4.0 20.0 0.00 0.00 0.00 43 1006.7
20260504213529 61 222 7.0 20.0 0.00 0.00 0.00 43 1006.9
20260504213058 61 194 5.0 13.0 0.00 0.00 0.00 43 1006.8
20260504212530 62 156 7.0 14.0 0.00 0.00 0.00 42 1006.9
20260504212028 63 191 4.0 16.0 0.00 0.00 0.00 42 1006.8
20260504211550 62 205 7.0 17.0 0.00 0.00 0.00 42 1006.9
20260504211030 63 157 5.0 17.0 0.00 0.00 0.00 42 1006.9
20260504210530 62 219 7.0 18.0 0.00 0.00 0.00 42 1006.9
20260504210046 62 248 7.0 21.0 0.00 0.00 0.00 42 1006.8
20260504205530 61 252 7.0 22.0 0.00 0.00 0.00 43 1006.7
20260504205031 61 228 10.0 22.0 0.00 0.00 0.00 43 1006.8